TimePDT,TemperatureF,Dew PointF,Humidity,Sea Level PressureIn,VisibilityMPH,Wind Direction,Wind SpeedMPH,Gust SpeedMPH,PrecipitationIn,Events,Conditions,WindDirDegrees,DateUTC
12:56 AM,53.1,19.0,26,30.17,10.0,NE,8.1,-,N/A,,Clear,40,2013-04-18 07:56:00
1:56 AM,53.1,14.0,21,30.17,10.0,ENE,6.9,-,N/A,,Clear,60,2013-04-18 08:56:00
2:56 AM,52.0,10.9,19,30.17,10.0,NW,4.6,-,N/A,,Clear,310,2013-04-18 09:56:00
3:56 AM,51.1,10.0,19,30.18,10.0,NE,6.9,-,N/A,,Clear,50,2013-04-18 10:56:00
4:56 AM,50.0,10.0,20,30.19,10.0,NE,4.6,-,N/A,,Clear,50,2013-04-18 11:56:00
5:56 AM,48.0,10.0,22,30.21,10.0,Calm,Calm,-,N/A,,Clear,0,2013-04-18 12:56:00
6:56 AM,50.0,15.1,25,30.23,10.0,ENE,3.5,-,N/A,,Clear,60,2013-04-18 13:56:00
7:56 AM,52.0,15.1,23,30.25,10.0,ENE,6.9,-,N/A,,Clear,60,2013-04-18 14:56:00
8:56 AM,55.0,12.0,18,30.25,10.0,ENE,6.9,-,N/A,,Clear,60,2013-04-18 15:56:00
9:56 AM,57.0,10.0,15,30.25,10.0,East,10.4,-,N/A,,Clear,80,2013-04-18 16:56:00
10:56 AM,59.0,10.9,15,30.25,10.0,ENE,10.4,16.1,N/A,,Clear,60,2013-04-18 17:56:00
11:56 AM,59.0,10.0,14,30.24,10.0,Variable,3.5,-,N/A,,Clear,0,2013-04-18 18:56:00
12:56 PM,61.0,9.0,13,30.22,10.0,South,5.8,-,N/A,,Clear,170,2013-04-18 19:56:00
1:56 PM,63.0,6.1,11,30.19,10.0,East,5.8,-,N/A,,Clear,100,2013-04-18 20:56:00
2:56 PM,66.0,5.0,9,30.16,10.0,East,9.2,-,N/A,,Clear,90,2013-04-18 21:56:00
3:56 PM,68.0,5.0,8,30.14,10.0,NNE,9.2,-,N/A,,Clear,20,2013-04-18 22:56:00
4:56 PM,66.9,6.1,9,30.13,10.0,Variable,3.5,-,N/A,,Clear,0,2013-04-18 23:56:00
5:56 PM,66.0,5.0,9,30.13,10.0,East,8.1,-,N/A,,Clear,80,2013-04-19 00:56:00
6:56 PM,66.0,5.0,9,30.13,10.0,SSE,4.6,-,N/A,,Clear,160,2013-04-19 01:56:00
7:56 PM,64.0,7.0,11,30.14,10.0,South,5.8,-,N/A,,Clear,170,2013-04-19 02:56:00
8:56 PM,63.0,8.1,11,30.16,10.0,SSW,6.9,-,N/A,,Clear,200,2013-04-19 03:56:00
9:56 PM,61.0,9.0,13,30.16,10.0,SSW,9.2,-,N/A,,Clear,200,2013-04-19 04:56:00
10:56 PM,57.9,9.0,14,30.17,10.0,South,4.6,-,N/A,,Clear,190,2013-04-19 05:56:00
11:56 PM,57.0,9.0,15,30.17,10.0,SW,6.9,-,N/A,,Clear,230,2013-04-19 06:56:00